Theta_e
349 350 349 351 351 353 353 355 354 355 355 357 357 358 358 357 358 357 359 359 357 356 355 353 351 353 353 352 351 353 356 357 357 358 357 356 360 362 367 366 368 368 367 366 365 365 365 365 368 371 368 367 369 368 366 366 369 368 365 363 357 353 351 350 348 346 343 339 340 339 343 343 346 343 346 346 347 349 350 348 348 349 349 350 352
350 348 349 349 351 353 354 354 356 353 355 357 357 358 360 359 359 358 359 359 358 355 354 354 355 353 351 351 353 352 354 355 356 359 356 357 361 364 367 367 367 368 367 367 367 366 365 365 370 372 371 368 370 371 369 368 370 369 365 363 358 351 349 345 345 343 339 336 336 335 339 340 346 344 341 343 346 348 347 349 349 343 343 345 348
343 349 349 350 351 353 354 355 355 355 355 356 359 359 360 359 361 361 360 358 358 358 356 355 356 357 355 355 354 354 357 359 358 360 360 356 359 364 367 368 368 367 367 367 365 366 370 371 371 371 371 368 368 370 369 369 369 369 365 355 352 353 350 350 348 345 338 334 337 338 330 331 335 339 341 342 344 345 346 345 345 344 343 345 349
344 348 347 350 350 352 354 355 356 356 357 358 358 360 360 360 362 362 361 361 360 360 359 359 360 361 362 362 359 357 356 360 362 360 360 358 357 363 367 368 368 366 366 366 366 366 372 373 370 369 370 372 371 370 368 368 369 370 366 358 356 348 346 347 346 345 344 334 333 334 331 333 323 332 337 341 342 344 344 343 343 345 343 346 346
346 348 349 349 349 350 353 356 356 356 356 358 359 359 359 360 363 363 361 361 362 361 361 362 362 362 362 363 362 360 358 358 358 356 359 359 357 362 367 369 368 364 364 366 365 366 372 374 371 370 371 375 373 371 369 365 368 367 365 358 356 348 342 346 348 347 341 346 343 331 328 331 332 330 331 336 338 338 341 343 344 344 345 347 342
345 350 349 349 350 352 354 356 355 356 355 358 360 360 362 362 364 363 362 362 361 363 363 363 361 359 358 356 354 354 353 353 354 353 354 356 354 357 366 366 365 365 364 366 366 365 371 374 374 371 371 373 372 367 368 362 365 366 362 359 356 354 348 346 344 346 346 345 347 346 346 338 335 334 333 326 347 341 343 345 345 344 347 343 346
348 350 351 349 350 351 353 356 356 354 357 359 360 361 363 363 364 364 363 363 362 364 364 363 363 361 360 357 356 356 354 357 361 359 358 358 360 357 359 365 366 363 363 366 366 367 369 371 374 372 370 372 373 371 367 365 365 367 363 360 357 356 350 348 346 343 346 344 344 343 344 344 343 337 334 335 331 339 340 341 342 344 342 342 341
341 346 351 351 351 351 352 355 356 356 358 358 359 361 363 364 365 365 364 363 363 365 364 365 363 361 361 359 359 358 356 358 361 363 362 362 359 357 358 362 367 366 363 366 367 367 368 369 373 373 369 367 369 369 367 364 365 366 363 363 361 358 352 348 345 346 336 342 342 342 342 343 346 344 343 339 336 333 334 340 342 340 342 340 340
343 342 349 350 351 352 353 356 357 357 357 358 359 361 363 365 365 366 364 365 364 365 365 364 364 363 361 360 359 360 360 359 361 363 362 363 360 360 360 360 366 368 366 364 367 368 368 368 371 371 369 366 366 365 364 365 368 365 363 362 360 357 354 352 351 350 342 342 343 343 344 342 340 342 345 343 339 334 332 333 336 338 338 338 339
347 349 352 352 352 353 355 357 358 356 356 360 360 360 361 363 365 365 365 364 365 366 366 366 364 363 361 362 361 360 359 359 360 360 362 363 362 363 363 363 362 367 369 367 368 368 368 369 367 368 368 364 364 365 366 366 367 367 365 363 362 358 356 353 350 350 346 349 344 344 343 342 341 341 341 340 340 341 334 333 333 332 334 334 341
349 352 353 354 354 354 356 357 357 356 357 359 358 360 362 363 365 364 365 365 366 366 366 364 364 363 362 362 363 362 360 359 359 361 363 364 362 363 364 364 364 364 366 367 367 367 368 369 366 366 366 365 365 366 367 364 365 365 364 364 363 359 355 354 352 350 347 351 346 348 343 341 342 339 339 337 339 336 336 333 332 334 333 333 339
347 350 352 354 355 355 356 357 357 357 357 357 359 359 361 362 363 364 366 366 367 366 367 365 363 362 364 365 365 363 362 359 360 360 363 364 363 363 365 365 365 365 366 363 365 363 367 368 369 366 365 365 364 367 366 365 364 365 364 364 363 361 358 356 353 348 346 349 349 346 344 343 342 343 341 342 341 339 337 336 336 336 335 336 339
347 349 351 352 353 354 354 357 359 358 356 358 358 359 361 363 364 364 365 367 367 367 366 365 364 363 364 365 366 365 364 363 362 361 364 365 365 365 365 364 365 365 364 362 362 365 365 369 369 366 365 366 368 368 367 368 367 363 363 363 362 361 357 356 353 349 346 344 346 345 342 344 344 342 345 342 339 342 341 337 334 334 334 334 340
346 347 350 353 354 354 356 357 358 357 357 357 358 360 362 362 365 365 365 367 367 366 366 365 364 364 365 366 367 366 365 364 362 361 362 366 368 366 364 362 364 364 363 364 362 364 364 368 370 369 369 369 369 370 369 369 369 365 364 363 361 362 359 357 356 352 350 349 347 346 346 343 343 343 341 343 341 339 337 335 337 338 333 333 339
345 348 348 351 354 356 355 356 358 358 357 358 359 360 362 363 365 366 366 366 366 366 365 364 364 364 367 366 367 367 366 365 364 363 363 364 366 367 367 363 361 364 363 366 368 366 365 367 370 370 368 369 371 370 369 370 370 369 367 366 363 362 361 357 355 353 348 349 350 348 346 345 344 346 341 338 342 342 340 339 340 336 330 331 336
341 345 349 351 355 357 356 357 358 359 359 358 359 360 361 365 367 367 366 366 366 366 365 364 364 366 366 367 367 368 368 367 366 366 365 364 366 367 367 367 364 363 367 367 367 367 366 366 369 371 371 368 370 372 371 368 369 368 368 367 365 362 361 358 356 354 350 351 349 351 349 344 346 345 346 344 340 345 345 344 342 341 336 329 333
336 342 348 351 354 357 357 358 358 360 359 359 361 362 364 365 367 367 368 368 368 368 366 367 367 365 365 367 367 367 367 367 364 365 363 365 366 366 365 367 366 365 365 368 367 369 369 368 368 369 371 369 369 371 370 368 369 368 367 367 365 362 362 360 355 354 354 348 348 349 347 346 347 350 348 347 348 349 347 346 344 341 341 338 332
339 346 351 352 354 356 357 357 358 360 360 360 363 363 365 365 367 368 368 368 368 368 367 367 365 364 365 366 368 368 367 366 366 366 366 365 365 366 366 366 366 364 363 364 368 368 370 371 369 370 370 370 368 368 369 367 368 366 367 368 367 366 362 361 358 355 355 353 349 348 348 345 347 349 347 345 350 351 347 346 346 346 346 339 339
336 342 348 351 352 355 357 357 358 361 363 363 363 363 364 366 368 368 367 369 369 367 367 366 366 365 365 366 368 368 368 368 367 367 368 366 363 364 365 364 366 368 367 367 367 368 370 370 371 370 370 370 369 368 369 368 368 366 365 365 366 366 362 360 360 357 355 354 351 348 349 348 347 347 349 345 347 349 348 346 346 346 345 345 343
334 339 346 350 352 353 356 356 357 359 361 362 363 363 363 364 366 367 367 370 369 368 367 366 365 364 365 367 368 369 370 369 367 368 366 366 365 363 365 363 364 366 366 367 366 367 369 368 369 368 366 367 368 367 368 369 368 366 363 362 364 365 363 361 358 357 355 355 353 349 350 349 349 349 349 347 345 349 350 346 346 345 346 346 346
334 336 343 349 351 352 355 357 357 359 361 362 361 361 362 363 364 366 367 367 366 367 367 367 366 366 366 367 368 369 369 367 367 368 367 368 368 367 365 365 366 365 366 367 367 368 369 369 367 369 366 367 369 368 368 369 368 366 365 365 365 363 362 360 360 357 355 356 355 352 351 353 352 350 349 349 345 346 349 346 346 345 343 346 345
337 336 341 347 352 353 354 356 357 357 358 359 361 362 361 362 362 364 365 365 364 365 367 367 368 367 366 367 367 368 369 368 367 366 368 368 368 368 367 368 366 367 368 367 369 369 369 368 368 369 370 367 370 370 367 367 367 366 365 363 363 363 361 360 360 358 357 355 355 354 352 351 353 352 350 349 347 345 347 344 343 344 343 345 347
334 336 338 342 351 353 353 356 357 356 358 359 360 360 360 361 362 363 362 364 364 365 366 369 368 367 367 367 367 368 369 368 366 365 365 366 367 369 369 367 365 365 369 368 368 369 371 370 370 369 370 369 370 370 369 368 368 367 365 363 363 363 362 360 359 358 358 358 356 355 352 351 352 351 350 349 348 347 348 347 344 344 345 345 348
335 337 336 342 348 353 356 356 357 357 358 358 358 360 361 361 360 361 361 362 363 364 365 369 368 367 367 367 367 368 366 365 365 363 364 365 365 367 369 367 366 364 365 370 370 370 371 372 369 369 369 370 369 369 370 369 368 368 366 364 364 364 363 362 360 359 358 358 356 355 354 352 351 350 350 349 349 348 347 348 347 346 347 346 347
339 342 342 345 348 353 357 357 362 361 355 358 359 359 359 360 360 360 360 362 363 364 365 367 367 365 365 367 367 366 365 365 363 363 364 364 364 363 366 367 366 364 362 366 370 371 372 372 369 369 369 370 369 370 370 368 368 369 367 365 364 365 364 364 363 362 360 360 358 357 356 354 352 350 350 348 347 349 348 346 346 347 346 346 346
343 343 343 345 354 358 361 362 363 357 355 360 362 358 358 359 360 360 360 361 362 362 363 366 366 363 365 367 367 367 364 365 365 363 363 362 361 360 362 366 367 364 363 362 367 369 370 372 372 371 370 371 372 371 371 370 368 368 367 366 365 365 364 365 365 364 363 361 360 359 358 357 353 351 350 349 349 348 348 347 347 347 346 347 347
343 345 344 351 355 356 358 361 356 355 356 356 356 358 358 361 360 359 360 361 363 363 364 365 365 363 366 368 367 367 365 365 366 364 362 361 359 359 358 361 366 366 365 361 362 369 370 371 373 372 371 371 372 371 372 371 370 368 368 368 364 364 364 365 366 365 363 362 361 360 360 359 356 354 352 351 350 348 347 348 348 348 347 346 345
347 347 347 347 350 352 357 359 356 354 355 356 356 356 359 360 359 359 359 359 360 363 364 365 366 365 367 368 369 369 367 366 367 370 366 363 361 360 361 361 365 367 365 364 361 366 369 370 372 372 372 373 373 372 372 372 371 368 368 368 366 364 365 366 366 365 363 361 361 361 360 360 359 357 355 355 353 350 349 348 349 350 349 347 345
341 349 353 351 350 354 355 356 355 354 355 355 355 357 360 360 360 361 358 359 362 362 363 363 366 367 369 370 371 371 370 369 367 370 369 366 364 366 366 364 366 367 366 365 365 364 368 370 371 372 372 373 372 372 372 372 371 369 368 367 366 364 364 364 365 364 363 362 361 360 360 359 362 357 350 351 350 349 351 349 351 351 350 349 347
333 342 349 354 353 356 358 359 360 356 356 353 354 358 357 357 358 358 360 359 362 363 365 364 365 368 370 372 373 372 371 372 370 369 371 370 368 367 365 364 365 365 369 370 369 367 365 368 369 371 373 371 372 373 360 345 350 370 369 366 366 366 365 364 364 363 362 361 360 360 360 354 351 346 345 345 345 346 347 351 354 354 352 351 348
332 346 346 350 354 358 360 360 361 360 357 356 357 357 356 355 357 357 359 359 359 367 367 366 367 370 371 372 373 372 372 371 372 371 372 371 370 369 370 371 369 368 370 373 369 366 364 366 368 369 370 371 371 371 343 337 339 345 364 369 366 366 367 365 364 364 362 361 361 361 362 360 354 347 350 342 344 345 345 347 353 353 351 354 350
326 337 343 353 351 354 360 360 359 359 359 357 360 356 356 354 357 357 356 357 357 359 362 367 366 370 372 372 372 373 373 371 372 371 371 372 372 370 370 370 368 367 371 369 368 368 369 366 366 368 369 370 371 350 335 335 336 337 346 369 367 365 365 364 363 363 363 361 360 360 360 360 360 361 360 356 348 343 342 343 345 351 350 349 348
330 330 330 327 331 347 355 351 352 356 357 356 357 355 357 358 360 361 361 358 359 358 363 366 367 369 371 372 373 373 373 372 372 371 372 372 372 370 369 369 367 369 369 370 371 368 368 368 366 368 367 369 370 344 332 332 334 335 336 351 367 366 363 362 363 363 362 362 361 360 360 360 359 346 354 359 358 355 339 338 340 343 346 344 339
326 328 328 333 336 343 342 351 357 353 349 358 360 354 356 359 360 364 363 364 364 362 366 365 367 368 371 373 373 373 372 372 373 372 371 371 371 371 370 369 369 370 369 369 369 369 370 370 368 368 369 368 370 341 329 329 331 331 333 342 367 366 365 364 363 364 362 363 363 362 360 359 361 363 361 359 359 357 354 350 351 352 352 350 341
330 330 328 335 342 351 355 351 346 345 350 353 356 356 357 358 361 361 364 367 364 364 364 365 366 368 371 373 373 373 373 373 373 372 371 371 371 372 370 369 368 367 368 368 368 369 370 370 368 366 365 366 367 335 326 326 327 327 330 336 366 365 366 366 366 366 366 363 364 363 363 361 362 364 360 357 359 358 356 352 351 350 350 350 351
328 332 357 361 356 358 354 357 359 354 349 350 351 356 354 357 360 359 361 364 366 365 364 366 366 368 370 372 372 373 373 373 372 372 371 370 371 372 370 370 368 366 368 369 370 369 368 368 369 368 365 364 365 329 324 324 324 325 327 351 364 365 365 366 366 367 366 366 365 365 365 362 363 364 348 337 348 360 357 353 350 349 349 349 349
333 341 350 365 365 360 357 360 360 357 350 350 350 353 356 355 357 357 363 363 363 363 362 364 366 368 368 371 371 371 371 372 372 371 370 369 370 371 371 371 369 366 365 366 368 368 370 368 368 368 367 366 366 339 320 321 322 322 330 357 363 363 363 363 365 366 366 367 366 367 366 363 362 364 345 330 335 345 358 354 352 350 349 348 348
340 352 354 358 359 363 364 362 362 363 364 362 356 355 360 362 360 361 360 361 359 359 361 365 367 369 369 370 371 370 370 370 371 370 369 369 370 370 371 372 368 366 364 365 367 368 369 369 368 368 367 367 367 342 316 319 320 319 333 359 362 362 362 362 362 365 366 365 365 349 360 365 362 364 333 328 330 345 358 356 353 350 348 347 348
354 353 351 354 364 364 362 360 362 364 366 365 362 359 357 358 359 358 358 357 358 359 361 362 367 369 369 369 370 370 370 370 370 370 370 369 368 369 371 371 369 368 367 368 367 367 367 369 368 367 353 362 367 345 315 318 317 317 334 361 362 361 360 360 360 361 364 365 365 353 344 351 355 354 325 326 326 341 357 357 355 352 348 347 348
351 356 358 358 364 362 364 363 360 362 363 363 359 357 358 358 357 356 356 357 360 361 363 365 366 368 369 369 369 371 371 369 369 370 372 370 370 370 370 369 369 367 367 366 365 365 365 366 368 367 367 367 367 369 335 315 315 316 322 359 364 361 359 360 361 361 361 363 363 363 349 331 333 333 321 321 322 328 353 358 356 351 349 348 351
349 353 354 356 361 362 361 364 366 367 366 365 359 356 356 358 358 359 359 360 363 364 365 367 367 366 366 367 368 369 369 368 369 369 369 368 368 368 368 368 366 366 366 366 366 365 363 365 365 366 366 365 365 365 350 313 314 315 318 334 363 362 362 361 360 360 360 360 362 361 360 336 325 325 317 317 319 322 333 357 357 354 353 353 348
357 355 354 358 359 361 362 361 361 362 359 359 361 358 358 359 358 359 362 363 365 366 366 367 368 367 366 366 367 369 370 367 369 370 370 369 369 369 368 368 366 366 368 367 368 367 364 363 365 365 367 367 362 347 370 316 315 313 316 320 354 362 361 361 358 359 360 360 361 361 362 341 323 322 315 315 316 319 324 352 358 334 331 331 351
350 355 356 353 358 358 357 359 361 364 360 360 360 360 361 361 361 363 364 364 364 364 366 366 367 366 366 367 369 369 368 368 368 370 371 370 370 370 370 370 368 367 367 367 367 367 366 364 364 364 365 369 372 367 341 333 314 312 313 316 326 346 338 363 359 358 360 361 362 363 359 334 322 319 313 313 315 317 320 341 330 323 324 327 342
350 350 353 354 356 357 356 358 359 365 367 361 361 359 361 362 363 367 365 364 365 365 368 366 367 366 366 366 366 367 368 369 370 370 370 371 370 370 369 368 368 367 364 364 364 363 362 359 358 360 364 367 371 370 341 326 325 311 312 313 317 324 332 354 360 359 361 362 362 365 355 325 317 315 312 312 315 317 331 324 322 319 323 329 349
349 348 351 354 353 354 355 356 357 360 364 367 368 366 365 364 366 368 369 368 368 369 368 366 366 366 366 366 366 368 368 369 370 370 369 368 369 369 366 367 368 363 362 360 361 360 361 361 361 360 360 363 365 373 366 340 320 314 312 311 315 318 322 324 352 359 360 361 343 332 329 316 316 314 313 313 315 315 319 321 320 317 327 345 348
349 349 350 351 351 352 353 353 354 356 357 360 361 361 358 358 362 365 368 369 368 367 367 367 367 367 366 366 364 364 368 369 369 368 367 367 366 364 363 365 362 360 362 361 360 358 358 360 360 359 360 361 363 366 366 361 328 320 315 313 314 315 318 320 329 350 339 336 331 326 321 315 316 319 325 330 331 329 318 320 320 321 344 347 345
348 348 348 350 350 349 349 351 352 354 355 354 356 357 360 361 363 363 365 368 369 369 365 365 365 365 367 366 365 363 363 366 367 365 364 363 363 361 362 361 360 360 360 359 360 360 360 356 357 358 359 360 363 363 364 363 365 342 335 330 321 323 315 317 329 340 336 346 345 340 338 321 323 320 325 325 328 325 323 327 332 335 345 346 345
347 348 349 350 348 348 348 349 348 349 352 353 354 355 357 358 360 363 366 368 366 367 366 367 365 366 365 365 364 362 362 361 362 361 359 359 361 362 360 362 360 360 359 359 360 359 358 358 357 358 359 360 359 360 361 362 362 357 351 346 339 334 335 334 336 341 347 350 352 335 324 329 330 327 330 334 336 334 328 330 333 337 344 344 342
345 347 348 348 348 348 348 347 346 348 350 351 351 352 355 356 358 360 364 365 363 363 365 366 366 366 366 367 364 363 363 361 359 363 363 356 358 366 373 361 354 356 358 357 360 358 360 363 362 361 359 359 360 361 362 319 326 315 327 340 351 345 341 341 332 327 345 350 352 343 331 331 330 329 331 333 334 332 329 331 333 338 342 343 342
344 345 346 346 346 347 347 346 347 348 348 348 350 351 352 353 356 358 359 358 358 358 357 359 361 361 363 361 362 362 364 363 363 361 357 344 329 316 337 359 347 325 317 318 325 349 345 344 345 346 345 341 340 340 317 308 306 304 304 304 309 313 320 333 327 321 328 344 348 340 334 332 331 332 332 332 333 332 330 331 332 330 338 340 339
344 345 345 345 345 345 345 345 346 348 347 347 348 348 350 352 354 355 355 355 355 353 352 353 354 356 355 356 355 357 359 361 360 360 360 355 340 339 309 311 323 325 313 308 307 306 308 315 338 339 337 324 318 311 306 304 303 303 302 301 300 301 303 307 313 331 333 336 342 341 334 333 332 334 334 333 332 330 330 331 331 334 337 337 335
Wind_Speed
15 19 20 21 20 19 17 17 17 18 17 18 18 18 17 15 15 15 13 14 14 13 13 13 12 10 10 11 10 10 9 9 8 8 8 8 8 9 9 8 8 8 8 8 7 6 6 5 4 4 5 4 3 3 2 2 2 3 0 2 1 2 3 1 4 3 4 3 1 2 1 1 5 3 4 3 3 2 2 3 3 4 4 3 3
17 19 20 21 18 21 18 17 18 20 18 19 19 19 18 17 17 15 13 14 14 14 13 13 11 11 11 11 10 10 10 9 9 9 9 8 8 9 9 9 9 8 8 8 7 7 6 5 5 5 4 4 3 3 3 4 3 3 3 2 2 1 2 2 7 2 4 1 2 3 1 3 1 2 4 3 2 2 3 2 3 3 5 5 4
20 20 21 20 22 22 18 17 18 20 20 20 19 19 19 17 16 15 13 14 14 14 13 12 12 11 11 10 10 9 9 9 9 9 8 9 9 9 8 9 9 9 9 9 7 7 7 6 5 5 5 4 4 5 4 5 4 5 3 3 2 1 1 2 2 4 1 4 0 1 3 4 4 2 5 5 2 3 2 2 3 5 5 2 3
20 21 22 22 21 20 18 18 18 19 18 18 19 20 17 15 16 16 14 14 13 14 13 13 13 11 11 9 10 9 8 9 9 8 9 10 10 10 9 9 10 9 10 9 8 8 8 7 6 5 6 6 5 4 4 4 4 4 4 3 3 3 4 5 2 3 3 5 5 5 3 5 6 4 3 5 6 2 1 4 3 3 4 1 1
19 21 22 22 22 22 21 19 19 19 19 20 20 19 15 19 17 17 15 15 13 14 14 12 12 11 10 9 9 9 8 9 9 9 9 9 10 10 10 11 11 10 10 10 9 9 8 7 7 6 5 6 5 4 4 3 5 5 4 3 4 3 2 7 4 3 4 3 4 2 1 1 3 8 7 2 5 5 5 4 4 2 4 2 5
17 20 23 24 23 21 20 20 20 19 20 19 19 20 18 18 18 18 15 14 14 16 15 13 12 11 11 11 10 10 10 9 10 10 10 10 11 10 10 11 11 10 9 10 10 9 9 8 8 7 7 5 5 5 5 4 6 4 5 4 4 3 5 2 5 3 3 3 3 5 4 4 6 2 1 1 5 4 4 4 2 4 3 2 2
19 20 21 22 23 23 22 21 21 21 20 19 19 19 19 18 18 18 15 14 15 15 17 13 13 12 13 13 12 12 11 9 9 9 9 9 9 10 10 11 11 11 11 10 10 10 9 9 8 8 7 6 5 5 5 7 5 4 4 4 4 3 2 1 2 5 3 3 4 4 2 3 4 1 2 4 3 1 1 5 4 4 4 3 4
18 19 22 23 24 24 25 24 21 21 20 19 19 19 20 20 20 19 15 15 15 14 17 14 13 13 13 13 12 11 12 10 10 9 9 8 9 10 9 9 11 11 10 10 11 10 9 9 8 8 7 7 6 5 6 5 4 4 4 4 3 4 5 3 4 4 5 4 5 4 3 0 1 2 2 1 2 3 3 3 6 6 6 6 5
22 22 23 23 24 25 24 23 23 21 20 20 20 19 19 19 19 19 17 16 15 17 17 17 14 14 13 13 12 11 11 10 9 9 9 9 9 9 9 9 10 11 11 11 11 11 10 9 9 8 8 7 7 7 7 6 5 5 5 5 5 5 4 4 4 3 5 6 5 4 2 3 4 4 4 2 2 2 6 6 5 5 6 5 7
21 21 21 22 23 24 25 23 22 21 20 20 20 19 19 18 19 20 19 16 16 18 17 18 17 14 14 14 15 12 10 9 9 10 10 9 10 10 9 8 9 10 10 11 10 11 11 10 10 10 9 8 7 7 6 6 6 6 6 6 5 5 4 4 5 3 4 1 5 4 3 3 3 3 4 5 4 4 3 7 6 7 4 3 4
17 19 20 21 21 21 21 23 24 22 19 20 19 19 19 19 19 21 20 16 17 18 18 19 18 16 14 15 16 15 13 12 10 10 10 10 10 10 10 9 9 9 10 10 11 11 11 11 10 10 9 8 8 7 7 7 7 7 7 7 7 7 5 5 6 5 5 3 5 4 5 5 4 4 4 4 5 4 4 4 8 7 8 6 4
18 18 19 20 20 21 21 22 23 22 21 21 20 20 20 19 20 21 20 19 17 18 19 19 17 17 15 16 16 15 14 12 13 12 12 12 12 11 9 9 9 9 9 9 10 12 10 10 11 10 9 9 9 8 8 7 7 7 6 7 6 7 6 6 6 6 7 5 6 6 6 6 5 5 5 3 2 4 3 4 2 6 1 5 4
17 17 18 19 20 21 23 22 21 22 20 23 22 21 20 20 22 22 21 20 18 19 19 19 18 17 16 16 16 14 14 14 13 13 12 11 11 11 10 10 9 9 10 10 11 13 10 10 10 9 9 9 8 8 8 7 6 5 7 8 7 8 7 7 6 7 8 7 7 7 7 6 6 6 5 5 7 4 3 3 4 2 2 4 6
17 17 18 19 19 20 21 21 22 22 23 23 23 21 19 19 22 23 22 21 19 19 19 19 19 18 17 16 15 14 14 14 13 13 13 11 11 11 11 11 10 11 11 11 10 12 11 11 10 10 9 9 9 9 8 8 7 6 7 8 9 7 7 8 8 8 8 9 7 7 7 7 6 7 6 5 6 7 5 5 3 2 4 5 6
16 17 19 20 21 22 22 22 22 22 24 23 22 21 20 20 21 23 23 22 21 20 19 20 18 19 17 16 14 13 14 13 13 12 12 13 12 12 11 11 11 10 11 10 10 10 11 11 11 11 11 10 10 10 9 9 8 7 7 8 8 8 8 8 8 9 8 10 9 7 7 7 6 6 6 7 5 6 6 5 4 5 4 4 5
16 17 19 20 21 21 20 20 21 21 23 22 23 21 21 21 22 24 24 24 22 21 20 20 19 18 18 17 16 15 13 13 12 12 12 13 12 12 12 11 10 10 10 10 11 11 11 11 12 12 11 11 11 11 10 9 9 8 7 8 9 8 9 10 8 9 9 10 10 8 7 7 6 6 6 6 6 4 3 3 5 5 5 5 4
18 19 18 20 20 21 21 22 21 21 21 22 22 23 23 22 22 23 23 22 22 22 21 20 20 18 19 18 17 16 16 16 15 16 16 14 13 12 12 12 12 10 10 10 11 12 11 12 12 13 12 11 12 11 11 10 10 9 9 9 9 9 9 10 9 9 9 9 9 10 8 7 5 6 5 5 5 4 2 4 4 5 5 5 5
18 19 19 20 21 23 22 22 24 24 25 24 23 23 22 21 23 24 23 24 23 22 22 20 20 19 18 19 18 18 17 17 15 15 14 13 13 12 12 12 13 12 11 10 11 12 12 13 12 12 12 13 13 12 12 11 11 9 10 9 9 9 10 9 9 9 9 8 9 9 9 8 7 6 7 7 5 5 5 5 5 5 5 6 4
17 19 17 18 19 21 22 23 25 25 24 24 23 22 21 21 22 24 26 25 25 21 21 18 19 16 16 18 20 18 17 16 15 14 13 14 16 14 15 13 12 12 11 11 11 12 12 12 12 13 12 13 13 13 12 11 11 10 10 10 10 10 9 10 10 10 10 9 10 10 9 8 8 8 7 8 6 7 7 6 6 5 6 6 5
17 17 18 19 21 23 24 24 24 24 23 22 24 22 24 23 22 22 23 22 22 21 20 20 20 18 17 18 18 17 17 16 15 15 15 16 16 16 15 15 14 12 12 13 12 12 13 14 13 13 14 13 13 13 14 12 12 11 10 10 11 12 11 11 11 11 9 10 11 11 10 9 8 7 8 8 7 7 7 7 7 7 6 7 6
15 16 18 20 21 22 22 22 21 21 20 20 22 24 23 22 23 24 24 24 24 23 22 19 18 19 19 20 20 19 19 17 17 17 16 16 15 15 15 14 12 13 13 14 14 14 13 13 14 13 14 13 13 13 12 12 12 12 10 11 11 13 13 11 11 12 12 11 11 11 11 11 10 9 8 8 8 8 8 8 7 7 7 7 7
16 16 17 18 19 19 19 19 17 19 21 24 22 22 23 24 22 23 23 23 24 23 21 20 19 19 21 20 20 19 18 17 18 17 17 16 15 15 14 13 14 14 14 14 15 14 13 14 14 14 13 13 13 13 14 13 13 13 13 10 11 13 14 13 12 12 13 11 11 12 12 12 11 11 9 9 8 9 9 9 8 8 8 8 8
16 16 16 17 16 16 17 19 20 21 20 22 21 22 23 24 23 22 23 24 24 24 22 20 19 19 21 20 19 19 18 20 20 18 19 19 17 16 15 15 15 14 14 14 14 14 13 14 13 13 13 13 13 14 13 13 13 14 14 13 12 14 14 14 14 14 14 13 12 12 13 12 10 12 11 10 10 9 9 9 10 9 8 9 9
13 13 13 12 14 15 13 16 17 17 18 21 21 20 21 21 23 23 25 26 24 21 21 20 20 21 21 20 19 19 21 21 21 19 21 20 18 17 16 16 16 15 14 14 14 15 14 14 14 13 13 13 14 14 14 14 14 15 14 14 13 14 14 15 15 15 14 14 14 13 14 14 13 12 12 11 10 10 9 8 10 9 8 9 8
8 8 9 10 13 15 13 16 15 16 18 18 19 19 20 21 22 23 23 24 22 20 20 21 21 22 22 20 21 20 21 22 22 19 22 21 20 18 16 17 17 17 16 14 14 14 14 14 14 15 14 14 14 15 15 15 14 14 15 14 14 14 14 15 15 15 14 14 14 14 14 14 14 13 12 12 11 12 10 10 9 9 8 8 8
9 10 10 12 11 13 13 14 13 17 17 16 16 19 19 19 21 21 20 20 21 20 21 20 20 21 20 21 21 21 22 22 22 21 22 21 20 19 18 16 17 17 17 16 15 14 14 15 15 15 15 15 14 15 15 15 16 15 15 15 14 14 15 15 15 15 15 15 14 15 14 14 14 14 13 13 12 13 12 11 11 10 9 8 8
8 9 9 8 9 12 13 12 14 16 16 16 17 18 18 17 19 20 18 19 19 19 19 20 20 21 19 20 21 21 20 21 20 20 19 19 19 20 20 18 17 17 17 17 17 16 14 15 16 15 16 16 16 16 15 15 15 15 15 15 15 15 14 14 15 16 16 16 16 15 15 15 15 15 14 14 13 13 12 12 11 10 10 10 9
7 8 9 10 9 9 10 12 14 15 15 15 16 17 17 16 18 18 18 18 17 18 19 19 18 18 18 20 19 19 19 19 18 17 17 18 18 18 17 16 15 17 18 18 18 17 16 16 16 16 16 16 16 16 16 16 16 15 15 16 15 15 15 15 15 16 16 16 16 16 16 15 15 14 14 14 13 13 11 12 11 10 10 11 10
10 10 10 10 10 10 10 12 13 14 15 16 15 15 15 15 16 16 18 18 17 17 18 19 18 18 17 17 17 16 17 17 17 16 17 17 16 16 15 15 15 16 15 17 17 17 17 17 16 16 16 16 16 16 15 15 16 16 15 16 16 16 15 15 15 16 16 15 15 15 15 16 15 15 17 14 14 12 11 11 11 11 11 11 10
10 11 11 10 11 11 11 12 13 14 15 16 15 13 15 16 16 17 16 16 14 16 16 17 18 17 15 16 16 15 16 16 15 16 16 16 15 15 15 16 16 16 14 14 14 16 17 17 17 17 17 15 15 14 15 20 17 14 16 14 14 14 15 15 15 15 15 16 16 15 15 17 16 17 16 16 15 14 15 12 11 12 13 12 11
15 12 10 10 11 11 12 13 13 14 15 14 14 14 14 17 16 17 16 16 16 14 15 16 16 15 14 15 15 15 15 16 16 15 15 15 15 13 13 14 14 15 14 13 14 16 17 16 18 17 18 16 15 13 18 20 20 19 16 15 14 14 15 15 15 15 15 15 15 16 14 14 15 15 17 20 18 16 15 16 14 14 14 13 13
2 9 9 9 8 10 11 13 14 15 15 14 13 14 15 16 16 16 17 17 17 17 18 16 16 14 15 16 15 15 15 16 15 15 15 15 14 14 13 14 15 16 13 14 15 16 15 16 15 17 17 16 15 16 20 22 22 22 19 15 15 14 14 15 15 16 15 15 15 16 16 13 14 15 15 16 18 19 17 17 16 12 14 17 14
6 4 4 8 9 9 10 7 8 10 12 15 15 15 15 15 13 13 14 16 17 18 16 15 16 16 16 16 15 16 16 15 16 16 14 14 14 15 15 15 17 15 14 15 15 16 16 16 15 16 17 17 16 17 20 23 23 23 23 19 14 15 15 16 16 17 16 15 14 15 15 15 13 19 17 17 15 16 17 19 17 15 14 16 16
7 6 5 6 3 3 3 4 6 7 9 10 12 14 14 14 13 13 15 14 13 14 14 16 16 16 16 16 16 16 16 16 15 15 15 15 16 16 16 15 14 14 15 16 17 17 15 16 16 16 15 16 18 16 22 23 24 24 23 19 15 15 15 16 17 18 16 16 16 15 15 15 14 12 15 17 16 16 14 12 12 12 12 13 14
8 8 9 5 5 1 2 4 7 8 7 8 11 12 12 13 14 14 14 13 14 14 13 15 17 16 16 16 16 16 16 15 15 15 16 16 16 15 16 15 15 16 16 16 16 17 16 16 17 17 16 16 16 17 22 23 23 24 23 19 16 15 14 15 16 17 16 16 16 15 16 15 14 13 14 17 16 16 15 14 15 16 17 16 15
8 6 3 2 1 1 3 3 3 4 6 8 9 11 12 13 14 14 14 14 14 14 14 14 16 17 17 16 16 15 14 14 15 16 16 17 16 16 16 15 14 14 14 14 15 15 17 17 17 17 17 18 17 17 21 23 24 23 23 15 16 16 15 14 16 16 16 15 16 16 16 16 15 15 16 21 18 15 15 16 16 16 15 15 15
6 4 4 5 2 3 4 4 6 7 8 8 8 9 11 12 14 15 14 14 15 15 16 16 16 17 17 16 16 16 16 16 16 17 18 17 16 16 15 13 14 15 15 16 15 15 14 16 17 17 18 16 16 15 20 23 24 25 19 14 15 15 15 16 15 17 17 16 16 16 16 16 16 16 16 22 20 17 15 16 15 15 14 14 14
5 5 5 4 3 3 3 4 6 7 7 6 7 8 9 10 12 13 14 15 17 17 16 15 15 16 16 16 16 16 16 16 16 17 18 16 15 13 14 13 14 15 15 15 14 13 14 14 16 18 18 16 16 14 21 21 23 24 22 16 15 16 16 17 17 16 15 17 18 19 17 17 17 16 19 23 22 18 16 16 16 16 16 15 14
6 6 6 6 6 5 6 7 7 7 6 6 7 8 10 11 12 13 15 16 17 16 16 16 16 14 14 14 15 15 15 15 16 15 14 14 14 13 12 12 13 13 14 13 13 13 13 14 16 17 16 18 17 14 20 22 24 24 21 14 15 15 17 18 17 17 16 15 16 15 20 18 18 16 21 24 25 21 17 17 17 16 16 16 15
5 5 6 6 6 5 4 4 4 4 4 5 7 8 10 10 12 13 15 16 15 14 14 13 13 13 13 13 13 13 14 15 14 14 13 13 12 12 14 14 13 13 12 13 13 13 15 14 14 16 14 17 17 12 16 23 24 24 27 17 15 15 17 18 16 14 14 15 16 15 15 22 20 17 19 25 25 25 19 17 16 16 16 17 14
6 6 7 6 4 3 4 4 4 3 4 4 6 8 9 10 11 12 14 13 12 12 13 13 13 14 14 14 13 14 15 15 14 13 13 12 12 13 13 13 13 12 11 11 12 12 13 13 14 14 15 17 15 17 13 24 24 26 28 24 16 17 17 15 16 15 15 16 15 17 14 21 23 19 20 24 25 26 22 16 16 16 16 14 13
5 2 4 4 4 4 4 3 2 5 6 6 6 7 8 8 9 10 10 9 10 11 11 11 12 13 13 14 14 12 13 12 12 11 12 12 11 11 11 11 11 10 12 12 11 11 11 12 12 12 13 13 12 16 10 19 24 25 26 30 17 17 16 15 17 18 16 16 16 14 15 17 25 21 21 24 26 26 26 16 16 16 15 16 15
6 4 3 3 3 3 3 4 4 4 1 4 6 7 7 7 8 8 7 8 8 9 10 11 11 11 11 11 11 12 11 10 10 11 11 11 10 10 10 10 11 10 11 11 11 11 11 11 10 11 12 11 10 9 13 14 21 24 26 26 26 17 17 15 17 18 18 16 15 14 15 18 25 25 22 24 24 26 22 17 19 14 16 18 14
4 3 4 3 1 2 2 4 5 5 3 1 4 5 5 6 6 3 5 6 6 7 8 9 9 10 10 10 10 11 10 9 10 10 10 10 10 9 9 9 9 9 9 10 10 11 12 12 12 12 11 9 8 8 10 18 18 25 23 26 27 25 20 17 18 17 16 15 15 14 15 18 24 25 24 24 24 23 19 24 18 14 18 17 13
2 4 5 5 4 3 3 4 4 4 4 4 3 3 5 7 4 1 3 4 5 6 7 8 9 9 9 9 8 8 9 9 9 9 9 9 10 10 9 9 9 10 9 10 10 10 10 10 11 12 12 10 10 8 10 13 21 22 24 24 26 28 24 20 15 17 16 15 16 17 16 16 23 25 24 23 20 22 24 22 17 14 17 12 12
3 1 1 2 2 3 3 4 5 4 4 4 3 3 5 3 2 1 3 4 6 6 6 6 7 7 8 8 9 9 8 9 8 8 8 8 8 9 9 8 9 9 9 10 10 10 10 10 10 11 11 11 10 8 9 7 11 16 18 23 25 25 26 24 22 20 20 20 20 19 12 17 20 21 16 10 7 11 16 18 18 14 12 14 13
3 2 2 2 1 3 4 4 6 5 4 5 4 4 4 4 5 5 5 5 5 6 6 6 6 6 7 7 7 7 7 8 8 7 7 7 8 9 9 9 9 9 9 9 10 9 9 10 10 10 10 10 9 10 11 11 6 8 9 12 16 17 23 24 19 17 17 14 17 19 7 10 11 20 22 19 18 15 14 12 11 10 12 15 14
4 2 4 1 2 3 3 4 5 5 6 7 7 6 4 2 2 4 5 5 6 6 6 7 7 6 6 6 6 5 6 7 7 8 8 8 9 8 8 7 7 8 9 9 9 9 8 9 9 8 8 8 10 9 11 9 7 4 2 5 8 10 11 12 14 13 12 16 17 14 9 10 11 11 11 8 9 8 11 13 8 9 11 15 14
4 2 3 1 2 3 4 4 5 4 6 5 4 4 4 4 2 3 4 6 7 8 8 7 6 6 6 1 7 7 6 6 6 5 9 10 8 4 5 8 10 7 7 6 5 3 2 3 3 3 4 6 6 8 6 10 10 6 5 8 7 9 10 10 15 20 15 16 16 6 8 7 7 10 12 13 11 10 10 11 11 10 11 12 13
1 2 2 3 2 3 4 5 5 5 5 5 6 5 4 4 4 4 5 6 7 6 6 6 5 5 5 6 6 6 5 5 1 7 9 8 10 12 9 5 7 6 10 10 8 5 5 5 4 5 5 4 6 7 14 18 15 15 15 9 11 14 14 15 15 21 19 15 15 12 12 12 13 12 14 15 14 13 11 12 13 18 17 15 14
3 4 4 4 5 5 5 5 5 5 6 6 6 6 6 6 6 5 5 6 6 6 6 6 7 6 5 5 4 4 4 2 3 3 4 6 8 7 11 13 12 8 8 7 7 6 7 6 4 3 3 2 6 9 10 12 15 16 15 15 13 10 15 19 19 14 13 15 16 14 11 13 14 14 16 17 15 14 17 17 14 16 18 17 16
Wind_Direction
195 183 182 181 179 178 177 175 178 178 178 175 178 179 181 183 178 184 182 182 173 179 185 189 191 189 198 201 200 196 204 205 206 211 206 203 188 187 186 189 193 190 193 198 205 208 226 233 217 213 223 215 214 240 217 250 210 230 136 278 166 161 134 211 89 349 46 216 66 309 145 184 188 175 277 147 134 129 142 147 138 131 110 103 92
189 179 183 181 182 177 177 175 178 178 179 176 179 179 182 183 181 181 181 181 183 183 183 191 191 193 195 198 201 195 195 203 204 207 206 200 193 191 188 196 192 190 193 197 203 207 213 217 215 211 211 228 207 213 219 213 210 230 227 166 220 158 164 287 97 113 209 251 118 140 198 139 10 215 204 144 158 143 150 143 121 150 117 118 118
195 180 180 180 182 179 177 177 180 178 178 178 179 179 180 183 181 179 182 181 184 183 183 189 192 194 195 196 201 197 195 202 209 202 205 197 195 196 191 195 194 192 195 196 202 206 206 205 203 210 206 215 201 213 213 211 212 226 198 211 141 198 128 59 153 270 324 95 85 243 172 161 143 227 242 123 193 142 139 131 66 73 68 65 117
194 182 179 179 183 178 179 178 179 178 177 176 179 179 180 184 181 180 182 182 183 183 186 188 192 193 196 200 201 214 192 195 207 204 205 206 196 191 193 197 195 195 194 196 202 200 205 203 207 208 203 203 204 207 208 223 219 207 198 196 196 180 179 141 159 202 283 140 171 232 180 177 148 169 213 171 139 179 219 112 109 104 87 340 147
193 182 180 178 181 183 182 179 179 180 180 179 180 180 182 183 180 179 182 184 184 181 186 185 186 192 194 202 202 214 213 197 200 206 203 204 205 190 196 198 196 201 195 199 202 201 201 201 205 206 205 194 201 195 207 228 221 205 189 193 202 248 211 138 169 167 261 292 335 136 156 230 199 153 159 310 159 156 168 118 97 83 81 6 49
206 192 182 180 181 179 179 181 182 182 182 181 181 181 181 181 179 179 181 184 185 183 184 185 185 189 191 193 198 202 209 198 201 203 199 198 207 196 198 205 199 200 201 199 203 203 199 200 201 206 201 194 201 213 188 183 237 208 186 198 187 226 306 48 151 172 219 220 277 323 347 7 32 19 125 145 342 116 112 76 99 81 104 127 117
204 199 187 181 180 179 180 183 186 185 182 180 181 181 181 179 179 180 181 183 186 183 183 186 185 191 193 197 198 199 201 202 201 207 205 199 206 205 195 198 202 201 202 200 204 203 204 203 204 206 209 198 193 202 204 209 205 196 192 184 188 161 162 238 254 147 175 196 220 242 221 296 36 84 130 124 170 110 102 160 138 150 173 159 193
195 204 192 184 181 181 183 184 186 186 181 180 181 180 181 179 179 181 182 183 185 184 184 185 187 189 194 199 202 203 203 202 198 202 208 206 201 210 198 196 198 204 204 196 201 202 203 205 205 208 208 211 203 202 209 222 198 182 185 167 160 157 157 204 227 148 175 189 205 214 185 150 115 87 53 96 162 162 184 184 159 182 204 180 180
189 198 190 187 184 185 182 182 186 184 181 181 182 181 180 180 180 181 183 183 184 186 185 189 190 191 195 199 203 205 205 202 200 202 206 207 208 204 208 197 195 201 208 201 198 201 201 206 203 208 207 211 210 198 213 199 191 186 178 167 172 162 167 196 233 199 202 173 179 210 228 176 176 203 138 160 253 201 166 168 182 183 216 144 165
188 195 190 191 187 187 185 181 181 186 183 182 181 180 179 179 181 181 184 184 184 186 186 187 191 194 197 202 204 203 202 204 204 199 203 203 208 203 206 204 199 200 203 207 198 201 202 202 206 205 208 212 211 217 208 192 190 188 187 181 179 170 171 183 205 229 240 186 162 182 197 214 198 203 177 191 182 226 284 159 181 173 201 184 157
190 189 191 192 191 188 183 183 184 184 181 180 181 179 177 179 180 183 185 185 185 186 188 189 191 195 199 202 204 203 199 199 202 201 198 202 205 204 203 205 206 200 204 205 207 203 203 203 207 206 208 207 210 218 207 201 191 189 188 182 182 184 176 185 199 218 220 234 168 185 190 197 198 183 205 199 168 213 244 223 172 185 185 160 149
191 190 190 189 189 189 188 187 184 184 182 181 183 181 179 178 179 181 184 184 185 186 187 190 192 195 199 202 204 203 198 198 201 204 198 201 202 203 203 205 206 208 204 202 206 209 201 204 209 207 203 204 204 209 213 207 202 187 182 180 185 190 181 183 204 207 207 213 202 187 198 209 183 209 187 200 255 214 228 261 358 37 64 144 175
189 190 188 186 189 189 190 187 184 184 184 181 183 181 180 179 179 180 183 184 184 186 188 191 192 195 198 203 203 201 199 200 202 204 200 200 201 202 201 203 203 208 208 206 204 205 200 202 204 208 199 202 203 202 210 210 206 196 176 182 185 187 186 187 202 209 210 201 214 199 192 216 193 204 228 191 182 199 251 270 239 174 148 157 156
189 188 191 187 188 190 190 188 186 186 185 183 184 182 180 181 179 180 182 183 183 185 187 189 194 196 198 201 201 197 200 201 203 204 204 202 201 204 204 204 204 208 208 209 209 203 202 201 203 205 204 197 198 201 199 200 196 201 183 185 187 188 187 190 205 212 212 212 214 224 208 197 217 187 208 234 189 179 204 215 231 286 183 216 122
188 187 191 190 188 188 188 189 188 188 187 183 184 184 181 182 180 181 180 183 183 185 187 190 194 196 197 199 199 199 200 201 203 205 206 205 204 205 206 209 210 208 211 208 208 209 201 199 200 206 204 199 194 196 195 195 191 191 192 189 191 186 193 192 201 216 212 213 215 225 234 216 213 197 199 198 238 191 185 204 209 201 223 252 162
187 196 194 192 187 187 188 189 190 189 188 187 185 183 183 183 181 182 181 181 183 185 187 190 193 194 196 196 199 200 201 202 203 205 207 208 207 206 206 210 214 211 208 208 203 206 205 201 197 202 201 199 196 196 194 193 189 191 194 190 195 182 194 194 203 212 217 213 218 220 232 243 201 213 213 190 213 253 162 198 177 204 215 197 238
189 193 191 190 186 187 190 189 189 188 189 191 187 186 185 182 181 182 182 182 183 184 186 188 190 191 194 195 197 200 202 203 203 205 207 207 207 208 209 210 211 215 211 206 207 202 205 203 200 200 199 199 198 196 195 195 189 192 195 194 195 191 186 196 200 210 217 213 213 214 220 237 238 210 223 216 192 216 191 190 197 199 212 245 180
192 190 189 187 187 187 190 191 189 189 191 192 189 188 185 184 182 180 181 183 184 184 187 187 188 191 192 195 197 200 202 205 205 205 206 207 206 208 209 208 210 211 212 210 205 205 203 203 203 200 198 197 197 198 198 197 192 194 194 196 198 194 191 194 201 209 213 219 213 212 210 223 231 219 213 222 190 195 201 195 206 205 203 221 235
193 192 186 187 189 189 191 193 193 191 188 189 189 187 187 187 186 183 183 184 184 185 187 187 187 190 193 195 197 199 202 204 205 206 205 208 209 206 209 210 210 209 209 211 208 207 203 202 202 202 202 197 195 196 193 196 194 196 192 195 197 197 197 194 199 206 212 214 215 216 208 216 220 222 217 215 203 189 204 205 201 210 200 215 230
196 191 187 189 191 192 191 193 193 192 190 189 187 188 190 189 186 188 187 184 184 185 185 187 189 191 192 194 197 199 200 203 202 201 206 208 209 209 208 209 209 207 209 208 210 209 205 207 205 205 203 203 198 197 192 194 196 198 196 198 193 197 199 198 201 203 210 210 214 214 212 213 216 218 220 217 207 200 201 208 207 202 203 207 212
199 193 189 191 193 193 192 192 193 190 188 190 189 190 191 190 190 190 187 187 186 187 187 189 189 192 191 193 195 196 199 201 202 202 206 208 207 209 209 209 205 209 207 207 207 209 208 206 207 207 208 200 198 199 196 192 198 198 199 200 195 195 201 206 205 207 206 209 211 212 212 210 214 217 216 219 213 200 205 211 209 203 206 204 205
200 198 194 194 191 193 190 187 191 191 190 192 193 190 190 192 191 191 190 190 189 189 189 188 191 192 193 194 195 195 197 198 201 202 204 205 206 206 207 205 208 206 207 207 205 206 207 206 209 207 207 206 198 197 197 195 196 199 199 197 202 196 199 204 205 211 206 208 207 208 209 209 209 216 216 217 220 206 203 211 207 209 207 204 204
204 205 196 193 189 189 187 185 190 194 192 192 193 193 194 193 190 190 192 193 192 190 188 186 188 190 193 193 194 195 194 197 200 202 205 205 205 205 203 206 207 207 205 209 206 206 203 205 207 207 206 209 201 198 199 198 197 198 198 200 201 201 199 202 206 209 207 205 208 206 207 206 205 209 213 218 218 218 209 210 211 210 210 209 201
202 202 200 189 179 182 183 184 190 195 193 193 195 196 195 194 193 191 194 194 193 190 188 187 187 190 191 192 194 195 197 199 202 204 206 206 205 204 204 206 206 210 207 205 208 205 203 201 204 205 204 206 204 201 201 202 200 198 199 203 202 203 202 201 205 207 207 204 207 207 208 206 204 205 208 211 216 215 215 211 213 214 214 215 210
186 194 191 177 174 175 182 188 187 191 196 194 196 198 198 196 195 196 196 193 192 190 189 188 189 190 191 192 193 195 197 200 203 204 206 207 208 208 206 207 207 209 210 206 204 205 203 200 200 201 201 202 202 200 201 205 203 200 201 203 204 204 204 202 204 206 206 204 205 209 207 207 203 205 205 207 209 211 211 212 211 212 212 214 216
192 193 188 187 177 174 183 188 185 190 196 196 195 198 200 199 201 200 195 192 192 192 191 189 190 191 192 193 194 196 200 201 203 206 208 209 210 211 209 206 208 208 208 210 204 203 202 201 200 199 200 199 199 200 200 203 204 202 202 204 204 207 206 203 205 207 205 204 206 209 210 208 206 205 205 204 206 208 208 211 211 209 210 210 213
184 186 184 183 182 184 184 188 190 194 197 198 199 199 202 200 201 202 198 195 192 192 191 191 191 192 191 192 194 197 198 202 203 207 209 210 211 211 212 210 205 208 207 209 207 202 200 201 199 198 199 198 198 199 200 202 206 205 202 202 205 207 208 206 207 208 206 205 206 208 210 210 209 208 206 203 203 204 206 208 208 210 207 210 210
158 167 170 181 185 187 182 187 193 196 199 200 200 201 201 201 201 201 202 198 194 194 192 191 191 193 192 192 194 195 198 200 202 203 206 209 209 211 210 210 205 206 208 208 209 203 200 200 198 199 199 197 197 199 200 201 204 205 203 203 205 205 207 209 210 211 210 209 208 209 211 211 211 209 208 205 202 201 203 206 205 205 206 207 212
159 162 167 176 178 183 186 187 196 201 201 202 203 203 202 202 202 200 203 202 194 193 194 193 192 194 193 192 192 193 198 201 201 201 204 206 208 207 207 208 208 207 208 210 210 207 201 200 199 199 199 198 199 199 199 200 202 203 204 204 205 206 207 210 214 213 212 212 212 212 214 214 208 207 204 205 204 199 200 202 201 201 202 205 207
160 164 167 174 177 177 187 186 191 199 199 201 203 205 204 203 202 201 204 203 192 192 194 195 194 194 191 188 189 192 195 199 198 199 200 203 205 203 206 207 209 210 207 208 210 211 208 203 201 200 200 200 201 202 196 192 195 201 202 205 205 207 209 211 214 215 214 213 215 216 214 211 203 195 195 198 204 200 199 205 200 198 198 201 203
162 165 168 164 173 176 181 188 193 198 198 201 202 201 202 205 202 203 201 203 198 190 192 196 197 193 187 187 188 192 194 197 199 198 198 200 203 204 203 204 207 207 209 205 209 212 214 209 204 203 202 203 203 203 187 186 191 195 201 204 203 204 207 210 213 213 214 213 214 215 220 202 198 190 191 192 200 202 198 205 206 200 197 198 200
277 167 157 155 178 180 182 189 195 197 199 201 201 200 201 206 200 201 200 200 203 197 194 195 196 189 188 187 188 189 192 196 197 199 198 198 198 201 204 205 205 207 206 209 209 211 215 215 210 208 207 207 208 199 181 185 189 192 196 203 205 204 204 208 214 215 213 212 213 214 214 214 204 194 190 190 196 198 196 201 204 199 197 200 207
261 287 281 240 229 191 185 202 199 198 199 201 199 201 203 204 202 195 197 201 202 201 191 192 194 191 190 188 186 187 191 193 195 196 195 194 196 200 204 203 206 204 203 208 210 208 212 214 216 212 212 211 214 193 182 185 189 192 195 200 209 207 207 210 213 216 215 211 211 212 213 211 212 187 188 193 193 195 196 196 200 197 201 201 207
260 282 299 317 350 312 266 201 206 215 217 204 202 205 204 199 200 192 197 201 199 201 192 190 192 195 191 188 187 187 190 191 191 189 192 195 197 201 202 203 202 202 206 209 210 210 210 212 215 217 215 217 218 189 182 185 190 192 194 197 210 210 212 213 214 215 216 214 211 212 212 211 211 183 188 194 196 195 191 194 198 202 205 205 209
284 268 268 294 314 354 234 239 238 239 224 213 206 207 200 198 197 199 195 196 197 199 195 190 193 194 191 190 189 189 190 188 187 189 191 197 200 201 201 201 202 204 205 207 210 211 212 213 214 216 219 220 224 187 181 184 188 190 193 197 207 214 214 215 215 215 216 215 214 213 213 212 208 196 187 192 193 194 192 195 200 207 213 213 211
283 306 53 64 330 303 302 309 312 252 230 221 217 206 202 198 195 200 197 196 195 197 197 190 194 194 193 190 189 189 188 187 188 191 194 199 200 200 200 200 204 208 209 210 211 215 215 215 215 216 219 222 223 185 182 183 187 189 188 196 206 214 218 218 219 219 215 214 214 213 213 212 207 204 187 184 189 188 190 191 199 206 211 216 218
293 334 356 40 27 306 288 276 256 256 254 243 229 212 206 199 195 199 197 195 196 197 198 194 194 194 194 192 191 191 190 191 191 193 198 200 199 200 202 199 205 209 210 211 214 213 216 217 216 217 219 222 226 186 181 184 186 185 181 198 203 212 219 223 226 225 223 218 214 210 211 210 207 208 180 179 182 182 192 189 193 197 204 211 220
351 4 342 322 320 310 274 264 265 254 251 255 246 223 203 201 197 195 196 197 199 200 197 194 195 194 194 194 194 194 193 193 195 198 200 200 201 201 203 200 205 210 213 216 215 217 219 220 221 222 219 222 228 187 180 184 187 182 184 194 199 207 215 219 225 224 222 225 221 208 207 213 214 207 168 179 179 182 192 191 194 195 197 208 212
26 350 331 337 347 335 307 287 273 263 246 230 238 231 209 204 199 196 198 200 203 201 196 196 195 194 194 195 196 198 198 197 200 202 201 201 202 202 204 202 208 211 217 219 219 220 221 221 223 225 216 219 227 206 178 183 186 183 188 196 198 208 213 218 218 220 221 222 224 213 209 210 217 211 171 179 180 185 195 194 194 196 200 207 208
6 18 5 338 323 302 287 272 258 252 246 219 217 219 213 204 199 197 201 204 204 202 199 198 196 193 193 194 195 194 197 199 200 200 200 201 199 201 203 204 208 212 214 218 219 223 225 225 225 227 225 221 225 220 177 185 183 185 190 194 202 206 216 219 217 220 221 224 226 225 202 205 209 204 178 182 182 189 197 198 194 196 197 202 196
340 8 342 306 306 336 335 328 335 317 286 246 212 211 210 204 199 201 205 205 200 199 197 196 194 193 193 192 193 195 196 199 200 200 202 202 202 204 205 206 210 212 216 218 221 225 228 231 232 232 237 236 233 234 186 184 185 186 193 196 204 209 216 217 223 222 224 224 222 223 222 197 200 197 182 184 184 191 201 205 203 201 201 191 176
26 347 307 314 332 354 330 325 259 235 222 222 211 208 206 193 197 203 205 206 200 196 195 196 194 194 193 192 195 194 195 199 199 197 198 202 203 205 206 206 211 211 214 216 217 224 229 233 233 233 241 239 228 219 195 186 187 190 193 201 205 213 212 219 226 234 228 228 225 222 231 191 192 193 185 185 188 189 199 209 213 207 181 162 177
321 325 12 326 353 345 358 342 349 356 192 204 197 197 195 189 195 200 202 204 200 189 186 190 191 194 194 193 192 191 191 195 196 195 196 198 198 203 203 205 209 214 214 216 219 224 232 237 242 244 242 239 239 232 181 176 191 192 195 201 210 212 204 207 225 230 228 228 224 221 218 193 188 190 186 188 188 190 192 207 213 197 173 168 172
295 357 3 360 40 349 18 20 14 6 358 183 183 177 180 177 165 144 192 181 182 177 178 182 183 188 189 192 190 191 191 193 192 191 194 195 202 202 204 208 207 211 216 220 230 235 238 243 244 246 246 251 245 242 189 180 185 194 196 202 210 217 209 213 220 233 234 234 237 229 220 184 185 188 187 186 189 188 193 200 207 189 170 166 180
325 355 1 350 38 41 31 61 48 35 31 31 87 134 140 144 105 81 101 128 152 165 171 181 178 181 183 188 188 188 188 190 185 189 190 194 199 202 212 212 217 226 230 236 237 239 238 243 246 246 250 248 247 238 245 183 184 189 199 202 210 213 220 221 223 235 240 242 246 245 236 181 187 186 186 188 190 193 193 191 191 181 173 174 181
285 271 338 353 63 56 70 93 96 80 81 73 85 112 143 130 158 184 171 151 170 165 166 174 172 173 176 178 183 183 182 183 186 190 193 197 206 209 212 212 219 223 226 233 237 241 243 243 245 250 250 252 248 262 261 238 173 191 197 204 208 213 220 225 228 234 234 235 247 259 238 184 185 182 180 177 182 191 195 189 184 185 186 185 186
315 342 281 269 54 92 76 74 72 65 73 93 102 108 117 154 163 178 173 176 159 155 153 161 158 160 162 173 174 178 178 179 186 192 196 206 211 210 209 214 221 228 228 226 232 234 241 245 250 252 254 256 252 257 256 259 208 169 195 205 213 219 220 222 225 235 239 243 241 248 201 193 180 180 180 184 189 182 185 193 186 195 199 194 189
304 313 276 268 144 106 109 89 78 85 64 50 42 40 40 43 124 136 137 149 145 149 148 143 147 149 151 159 163 156 172 174 181 195 202 202 200 209 216 212 226 234 234 230 231 235 238 246 253 253 265 270 270 263 259 264 301 29 272 214 210 215 215 212 223 228 228 228 233 228 171 176 177 162 183 172 186 166 182 188 187 194 202 201 192
258 284 298 107 106 96 92 99 95 75 71 83 98 108 92 75 59 80 115 95 82 83 97 91 82 93 56 88 158 151 185 190 165 139 60 42 32 52 56 77 55 48 42 38 29 12 298 284 284 312 318 307 301 297 303 358 330 324 301 297 274 224 225 236 229 226 222 226 234 200 123 144 158 181 183 187 184 174 179 187 184 189 196 196 187
266 231 230 107 85 101 95 93 103 95 98 101 95 87 80 89 94 89 98 111 113 99 107 113 95 72 107 87 93 62 45 17 74 121 97 67 39 43 32 45 76 45 53 48 34 40 20 15 359 8 12 339 318 320 329 325 325 321 312 286 264 275 258 232 228 226 227 233 229 209 189 176 179 190 192 191 188 186 182 188 191 195 196 197 190
185 179 151 136 125 124 119 112 96 95 94 88 86 81 79 80 83 88 95 97 109 113 114 112 115 99 102 107 95 65 40 53 108 148 127 118 93 52 38 60 81 103 101 99 87 89 67 41 47 29 356 244 247 278 297 307 315 313 306 303 304 277 273 268 249 228 220 227 237 224 199 181 180 199 207 199 187 182 188 186 183 191 197 196 190